Simultaneous Nadir Overpasses (SNOs) Predictions

Prediction of SNOs between AURA and NPP Satellite Orbit:

Table of predicted SNOs for the next 14.0 days since TLE Epoch: 11/17/2017
Index Date (AURA) Time (AURA) Lat,Lon (AURA) SZA (AURA ) Date (NPP) Time (NPP) Lat,Lon (NPP) SZA (NPP ) Distance(km) Time Diff (sec)
1 11/19/2017 10:35:34 79.40, -82.75 111.09 11/19/2017 10:34:27 79.39, -82.83 111.16 1.73 67
2 11/19/2017 11:24:54 -79.67, 86.83 69.28 11/19/2017 11:25:04 -79.67, 86.83 69.29 0.12 10
3 11/22/2017 02:52:01 79.48, 33.73 111.59 11/22/2017 02:51:19 79.47, 33.61 111.64 2.76 42
4 11/22/2017 03:41:21 -79.76,-156.65 68.79 11/22/2017 03:41:56 -79.75,-156.68 68.81 0.85 35
5 11/24/2017 19:08:28 79.56, 150.18 112.05 11/24/2017 19:08:11 79.55, 150.04 112.09 2.96 17
6 11/24/2017 19:57:48 -79.83, -40.17 68.32 11/24/2017 19:58:48 -79.83, -40.20 68.36 0.78 60
7 11/27/2017 10:35:34 -79.46, 97.71 67.29 11/27/2017 10:34:24 -79.47, 97.76 67.25 1.10 70
8 11/27/2017 11:24:55 79.64, -93.42 112.48 11/27/2017 11:25:03 79.63, -93.53 112.50 2.35 8
9 11/30/2017 02:51:59 -79.57,-145.68 66.94 11/30/2017 02:51:14 -79.58,-145.55 66.93 2.73 45




NCC Satellite Simultaneous Nadir Overpasses (SNOs) Prediction Service
